Find Starlink 31891

NORAD ID: 59854 Int'l Des: 2024-097 Owner: SPXS Country: US Constellation: starlink operational
LEOCIRCULAR

实时位置

正在加载3D地球...

关于 Starlink 31891

正在加载描述...

即将过境

Passes for default location (London). Set your location on the main map for personalized predictions.

高度历史

Loading altitude history...

两行轨道根数

1 59854U 24097V 26124.92189079 .00003661 00000-0 14249-3 0 9992
2 59854 43.0019 317.0639 0001634 270.3159 89.7505 15.27579116110516
Epoch: May 4, 2026 • Age: 23 hours

当前状态

高度 494.3 km
速度 7.62 km/s
星下点 -40.85°S, 60.39°E
发射日期 May 23, 2024
运行时间 1.9 years
类型 internet

技术详情

分类 Payload
质量 730.00 kg
干质量 700.00 kg
总质量 730.00 kg
长度 0.30 m
直径 4.10 m
跨度 29.00 m
形状 Box + pan
制造商 SPXS
平台类型 Starlink V2M
阶段状态 In Orbit
所有者/国家 SPXS/US

Most Searched